Regional Weather Roundup
Issued by NWS

Home | Current Version | Previous Version | Graphics & Text | Print | Product List | Glossary Off
Versions: 1 2 3 4 5 6 7 8 9 10 11 12 13 14 15 16 17 18 19 20 21 22 23 24 25 26 27 28 29 30 31 32 33 34 35 36 37 38 39 40 41 42 43 44 45 46 47 48 49 50

000
ASUS43 KMPX 291210
RWRMN
WEATHER ROUNDUP FOR MINNESOTA
NATIONAL WEATHER SERVICE TWIN CITIES/CHANHASSEN MN
700 AM CDT MON MAY 29 2017


NOTE: "FAIR" INDICATES FEW OR NO CLOUDS BELOW 12,000 FEET WITH NO
SIGNIFICANT WEATHER AND/OR OBSTRUCTIONS TO VISIBILITY. N/A MEANS
CURRENT SKY AND/OR WEATHER CONDITIONS ARE NOT AVAILABLE.

MNZ060>063-068>070-291300-
   Twin Cities Metro

CITY           SKY/WX    TMP DP  RH WIND       PRES   REMARKS
TWIN CITIES    CLOUDY    55  46  71 W10       29.77R
6HR MIN TEMP:  54; 6HR MAX TEMP:  58;

ST PAUL        CLOUDY    55  47  74 NW14      29.77R
CRYSTAL        CLOUDY    55  44  66 W14       29.76R
BLAINE         CLOUDY    55  48  76 W13       29.76R
LAKEVILLE      PTSUNNY   52  46  82 W9        29.78R
EDEN PRAIRIE   PTSUNNY   56  47  71 W16G23    29.77R
6HR MIN TEMP:  55; 6HR MAX TEMP:  59;

SOUTH ST PAUL  CLOUDY    54  48  81 W9        29.77R
LAKE ELMO      PTSUNNY   54  48  82 W12       29.77R
$$
MNZ001>005-007-008-013>017-022>024-027-028-291300-
   Northwest Minnesota

CITY           SKY/WX    TMP DP  RH WIND       PRES   REMARKS
BEMIDJI        CLOUDY    47  45  94 NW16      29.75R
HALLOCK        CLOUDY    46  45  93 N21G28    29.82R
ROSEAU         CLOUDY    46  43  87 NW14      29.76R
WARROAD        CLOUDY    46  43  87 NW13G18   29.75R
THIEF RVR FALL CLOUDY    47  46  97 NW12      29.81R
CROOKSTON      LGT RAIN  48  46  93 N15       29.83R
FOSSTON        CLOUDY    45  45 100 NW17G25   29.80R
DETROIT LAKES  CLOUDY    48  46  93 NW14      29.82R
MOORHEAD       LGT RAIN  50  48  93 NW15      29.85R
PARK RAPIDS    CLOUDY    50  45  83 NW13      29.76R
MAHNOMEN       DRIZZLE   47  46  97 NW16      29.80R
$$
MNZ006-009>011-018-025>026-291300-
   North Central Minnesota

CITY           SKY/WX    TMP DP  RH WIND       PRES   REMARKS
BAUDETTE       CLOUDY    48  47  96 NW16G23   29.71S FOG
FLAG ISLAND    CLOUDY    46  45  93 NW20      29.72R
INTL FALLS     LGT RAIN  50  48  93 NW10      29.66R FOG
6HR MIN TEMP:  50; 6HR MAX TEMP:  52; 6HR PCP:  0.14;

WASKISH        CLOUDY    48  46  93 NW10G20   29.73R
BIG FORK       LGT RAIN  48  46  93 W5        29.70R
LONGVILLE      CLOUDY    48  46  93 NW7       29.73R
GRAND RAPIDS   CLOUDY    49  45  86 NW16G22   29.72R
CRANE LAKE     CLOUDY    50  48  93 W6        29.64S
ORR            DRIZZLE   48  46  93 NW9       29.63R
COOK           DRIZZLE   48  48 100 W10       29.66R
WALKER         CLOUDY    47  46  93 NW12      29.74R
$$
MNZ012-019>021-037-291300-
   Northeast Minnesota

CITY           SKY/WX    TMP DP  RH WIND       PRES   REMARKS
DULUTH         CLOUDY    52  49  89 W12       29.65R
6HR MIN TEMP:  51; 6HR MAX TEMP:  52;

ELY            LGT RAIN  50  48  93 W12       29.61R
HIBBING        CLOUDY    48  47  96 NW10      29.67R
EVELETH        CLOUDY    50  46  86 W9G17     29.66S
DULUTH HARBOR  CLOUDY    55  52  88 W14       29.66R
TWO HARBORS    CLOUDY    55  52  88 W6        29.61R
SILVER BAY     CLOUDY    55  52  88 CALM      29.58S
GRAND MARAIS     N/A     41  40  96 CALM      29.56S
G MARAIS ARPRT CLOUDY    50  45  81 NW6       29.57S
$$
MNZ029>031-032-039>041-046>048-054>057-064-291300-
   West Central Minnesota

CITY           SKY/WX    TMP DP  RH WIND       PRES   REMARKS
FERGUS FALLS   CLOUDY    48  48 100 N15       29.83R
WHEATON        CLOUDY    54  46  76 NW10      29.87R
MORRIS         CLOUDY    52  48  87 NW13      29.84R
ALEXANDRIA     CLOUDY    51  47  86 NW17G26   29.82R
ELBOW LAKE     CLOUDY    51  48  92 W17G23    29.84R
WADENA         CLOUDY    48  45  87 NW16      29.78R
GLENWOOD       CLOUDY    52  46  82 W22       29.82R
APPLETON       CLOUDY    55  46  71 NW14      29.85R
BENSON         CLOUDY    54  46  76 N18       29.85R
ORTONVILLE     PTSUNNY   54  46  76 NW12G18   29.86R
MADISON        CLOUDY    55  48  76 NW14      29.86S
WILLMAR        PTSUNNY   54  48  82 NW14G21   29.84R
$$
MNZ033>034-036-042>043-049>051-058-059-291300-
   Central Minnesota

CITY           SKY/WX    TMP DP  RH WIND       PRES   REMARKS
ST CLOUD       PTSUNNY   52  47  83 W13       29.77R
6HR MIN TEMP:  51; 6HR MAX TEMP:  54;

SAUK CENTRE    CLOUDY    51  46  84 NW12G18   29.80R
PAYNESVILLE    CLOUDY    52  46  80 W10G18    29.81R
AITKIN         CLOUDY    50  46  87 W5        29.71R
PINE RIVER     CLOUDY    50  48  93 NW6       29.78R
BRAINERD       LGT RAIN  50  48  93 W12       29.75R FOG
STAPLES        CLOUDY    48  46  93 W12       29.77R
LONG PRAIRIE   CLOUDY    50  45  81 W9        29.80R
LITTLE FALLS   CLOUDY    50  45  81 W10       29.77R
LITCHFIELD     CLOUDY    54  50  87 W10G16    29.81S
BUFFALO        MOSUNNY   52  46  79 W10       29.79S
MAPLE LAKE     SUNNY     53  48  83 W9        29.80R
HUTCHINSON     CLOUDY    54  49  81 W15       29.82S
$$
MNZ037-044-045-052-053-291300-
   East Central Minnesota

CITY           SKY/WX    TMP DP  RH WIND       PRES   REMARKS
PRINCETON      CLOUDY    54  48  82 W12       29.76R
MORA           PTSUNNY   50  46  87 W8        29.75R
CAMBRIDGE      CLOUDY    54  46  76 W8        29.73S
RUSH CITY      CLOUDY    52  47  84 W8        29.74R
MOOSE LAKE     CLOUDY    50  46  87 NW9       29.68S
HINCKLEY       CLOUDY    52  48  87 W7        29.72R
CLOQUET        CLOUDY    52  46  82 W10G16    29.67R
MCGREGOR       CLOUDY    50  46  87 W7        29.72R
$$
MNZ071>073-080-081-089-090-097-098-291300-
   Southwest Minnesota

CITY           SKY/WX    TMP DP  RH WIND       PRES   REMARKS
MONTEVIDEO     CLOUDY    54  46  76 NW9       29.85R
CANBY          PTSUNNY   53  47  80 NW13      29.89R
MARSHALL       PTSUNNY   53  45  74 W15       29.87S
REDWOOD FALLS  CLOUDY    53  45  74 W13       29.85R
OLIVIA         CLOUDY    54  46  76 NW15G23   29.83S
PIPESTONE      SUNNY     48  41  76 NW10      29.91R
WINDOM         MOSUNNY   52  45  76 W14       29.87R
WORTHINGTON    MOSUNNY   51  44  77 W16       29.90R
JACKSON        SUNNY     50  45  81 CALM      29.89R
TRACY          SUNNY     53  46  78 W9        29.88R
SLAYTON        SUNNY     48  44  85 W12       29.90R
$$
MNZ065>067-074>077-082>085-091>093-291300-
   South Central Minnesota

CITY           SKY/WX    TMP DP  RH WIND       PRES   REMARKS
MANKATO          N/A     54  46  74 W14       29.83R
NEW ULM        CLOUDY    52  45  76 W13       29.84R
ST JAMES       PTSUNNY   54  45  71 W15       29.87R
FAIRMONT       SUNNY     54  45  71 NW13      29.88R
GLENCOE        CLOUDY    55  50  84 W12G18    29.80R
FARIBAULT      PTSUNNY   54  46  76 W13G20    29.81R
OWATONNA       MOSUNNY   54  45  71 W16       29.82R
WASECA         MOSUNNY   52  45  76 W14G21    29.84R
ALBERT LEA     SUNNY     55  46  71 W7        29.84R
$$
MNZ078>079-086>088-094>096-291300-
   Southeast Minnesota

CITY           SKY/WX    TMP DP  RH WIND       PRES   REMARKS
ROCHESTER      SUNNY     52  46  80 W14       29.82R
6HR MIN TEMP:  50; 6HR MAX TEMP:  55;

RED WING       CLOUDY    55  46  71 W7        29.76R
STANTON        MOSUNNY   54  46  76 W12       29.78R
DODGE CENTER   SUNNY     52  45  76 W14       29.81R
WINONA         MOSUNNY   54  46  76 W9G17     29.78R
AUSTIN         SUNNY     52  45  76 W8        29.84R
PRESTON        SUNNY     52  44  75 W9        29.84R
$$
ABBREVIATIONS USED IN REMARKS
   TC - TEMPERATURES IN CELSIUS
  WCI - WIND CHILL INDEX
   HX - HEAT INDEX
  VSB - VISIBILITY
$$




USA.gov is the U.S. government's official web portal to all federal, state and local government web resources and services.